Simultaneous Nadir Overpasses (SNOs) Predictions

Prediction of SNOs between AQUA and NPP Satellite Orbit:

Table of predicted SNOs for the next 14.0 days since TLE Epoch: 10/22/2022
Index Date (AQUA) Time (AQUA) Lat,Lon (AQUA) SZA (AQUA ) Date (NPP) Time (NPP) Lat,Lon (NPP) SZA (NPP ) Distance(km) Time Diff (sec)
1 10/23/2022 00:45:46 -78.76,-119.51 76.13 10/23/2022 00:45:19 -78.75,-119.63 76.09 2.73 27
2 10/23/2022 01:34:58 79.29, 51.38 103.19 10/23/2022 01:35:48 79.30, 51.52 103.12 3.14 50
3 10/25/2022 16:11:50 78.92,-170.09 104.55 10/25/2022 16:11:23 78.93,-169.99 104.55 2.29 27
4 10/25/2022 17:01:11 -79.14, -1.15 75.72 10/25/2022 17:02:03 -79.13, -1.30 75.74 3.06 52
5 10/28/2022 07:38:00 -78.86, 138.02 74.52 10/28/2022 07:37:35 -78.86, 137.99 74.49 0.82 25
6 10/28/2022 08:27:16 79.23, -52.09 105.02 10/28/2022 08:28:09 79.22, -52.13 104.99 0.97 53
7 10/30/2022 23:04:06 78.84, 86.43 106.35 10/30/2022 23:03:43 78.84, 86.34 106.39 1.83 23
8 10/30/2022 23:53:23 -79.22,-103.64 74.13 10/30/2022 23:54:18 -79.22,-103.69 74.16 1.00 55
9 11/02/2022 14:30:10 -78.98, 35.71 73.00 11/02/2022 14:29:49 -78.98, 35.76 73.00 1.19 21



Historial Predications of SNOs between AQUA and NPP
